DG5TKE Weather Reports


time (UTC)temp
C
wind
direction
speed
KPH
gust
KPH
rain 1hr
cm
rain 24hr
cm
rain mn
cm
humidity
%
barometer
mb
20260904022003 16 217 3.2 6.4 0.00 0.25 0.00 90 1013.7
20260904021006 16 202 0.0 6.4 0.00 0.25 0.00 89 1013.7
20260904020003 16 169 1.6 3.2 0.00 0.25 0.00 89 1013.7
20260904015003 16 162 0.0 4.8 0.00 0.25 0.00 89 1014.1
20260904014003 16 169 1.6 6.4 0.00 0.25 0.00 88 1014.2
20260904013223 16 196 1.6 4.8 0.00 0.25 0.00 88 1014.3
20260904012003 16 220 0.0 4.8 0.00 0.25 0.00 88 1014.3
20260904011006 17 156 1.6 3.2 0.00 0.25 0.00 87 1014.4
20260904010003 17 194 1.6 9.7 0.00 0.25 0.00 87 1014.4
20260904005003 17 173 1.6 6.4 0.00 0.25 0.00 86 1014.5
20260904004003 17 178 1.6 4.8 0.00 0.25 0.00 86 1014.5
20260904003006 17 171 1.6 6.4 0.00 0.25 0.00 86 1014.5
20260904002003 17 179 1.6 4.8 0.00 0.25 0.00 86 1014.5
20260904001216 17 187 0.0 3.2 0.00 0.25 0.00 86 1014.6
20260904000006 17 180 1.6 6.4 0.00 0.25 0.00 86 1014.8
20260903235221 17 165 1.6 4.8 0.00 0.25 0.00 86 1015.1
20260903234006 17 192 1.6 8.0 0.00 0.25 0.00 87 1015.2
20260903233006 17 195 3.2 8.0 0.00 0.25 0.00 86 1015.2
20260903232003 17 185 1.6 9.7 0.00 0.25 0.00 86 1015.1
20260903231006 17 191 1.6 6.4 0.00 0.25 0.00 86 1015.2
20260903230003 17 185 1.6 6.4 0.00 0.25 0.00 85 1015.3
20260903225003 17 185 1.6 4.8 0.00 0.25 0.00 84 1015.2
20260903224006 17 182 1.6 8.0 0.00 0.25 0.00 84 1015.3
20260903223003 17 186 1.6 6.4 0.00 0.25 0.00 83 1015.5
20260903222006 18 178 3.2 6.4 0.00 0.25 0.00 82 1015.6
20260903221220 18 190 3.2 12.9 0.00 0.25 0.00 82 1015.6
20260903220218 18 188 4.8 12.9 0.00 0.25 0.00 82 1015.6
20260903215220 18 190 6.4 14.5 0.00 0.25 0.25 82 1015.7
20260903214003 18 196 4.8 11.3 0.00 0.25 0.25 82 1015.5
20260903213003 18 184 6.4 14.5 0.00 0.25 0.25 82 1015.4
20260903212222 18 204 6.4 14.5 0.00 0.25 0.25 82 1015.4
20260903211003 18 207 6.4 12.9 0.00 0.25 0.25 82 1015.4
20260903210003 18 203 6.4 14.5 0.00 0.25 0.25 82 1015.4
20260903205006 18 193 6.4 19.3 0.00 0.25 0.25 82 1015.4
20260903204006 17 204 6.4 17.7 0.00 0.25 0.25 83 1015.4
20260903203004 17 194 6.4 17.7 0.00 0.25 0.25 83 1015.5
20260903202007 17 196 6.4 11.3 0.00 0.25 0.25 84 1015.6
20260903201003 17 199 6.4 12.9 0.00 0.25 0.25 85 1015.7
20260903200007 17 202 6.4 14.5 0.00 0.25 0.25 86 1015.7
20260903195003 17 205 6.4 12.9 0.00 0.25 0.25 87 1015.7
20260903194003 16 205 4.8 12.9 0.00 0.25 0.25 88 1015.7
20260903193006 16 206 4.8 9.7 0.00 0.25 0.25 88 1015.7
20260903192221 16 209 4.8 9.7 0.00 0.25 0.25 88 1015.7
20260903191003 16 216 3.2 9.7 0.00 0.25 0.25 88 1015.9
20260903190003 16 220 3.2 4.8 0.00 0.25 0.25 88 1016.0
20260903185006 17 204 3.2 6.4 0.00 0.25 0.25 88 1016.0
20260903184006 16 192 3.2 8.0 0.00 0.25 0.25 89 1016.0
20260903183003 16 197 3.2 12.9 0.00 0.25 0.25 89 1016.0
20260903182006 16 196 3.2 9.7 0.00 0.25 0.25 89 1016.0
20260903181006 17 205 3.2 8.0 0.00 0.25 0.25 89 1015.9
20260903180003 17 227 1.6 6.4 0.00 0.25 0.25 89 1015.9
20260903175003 17 217 1.6 4.8 0.00 0.25 0.25 89 1015.9
20260903174003 17 207 1.6 9.7 0.00 0.25 0.25 89 1015.8
20260903173006 17 173 0.0 6.4 0.00 0.25 0.25 89 1015.6
20260903172003 17 205 1.6 3.2 0.00 0.25 0.25 88 1015.6
20260903171003 17 198 1.6 6.4 0.00 0.25 0.25 88 1015.6
20260903170006 17 184 0.0 8.0 0.00 0.25 0.25 88 1015.5
20260903165003 17 180 3.2 8.0 0.00 0.25 0.25 88 1015.6
20260903164006 17 165 3.2 12.9 0.00 0.25 0.25 87 1015.6
20260903163006 17 170 1.6 8.0 0.00 0.25 0.25 88 1015.6
20260903162222 17 132 1.6 4.8 0.00 0.25 0.25 88 1015.6
20260903161218 17 152 3.2 6.4 0.00 0.25 0.25 88 1015.5
20260903160003 17 188 4.8 12.9 0.00 0.25 0.25 88 1015.6
20260903155003 17 189 4.8 16.1 0.00 0.25 0.25 88 1015.8
20260903154003 17 193 4.8 11.3 0.00 0.25 0.25 89 1016.0
20260903153006 17 196 4.8 12.9 0.05 0.25 0.25 89 1015.9
20260903152006 17 184 3.2 9.7 0.08 0.25 0.25 89 1016.2
20260903151006 17 174 1.6 9.7 0.08 0.25 0.25 89 1016.1
20260903150007 17 184 3.2 11.3 0.08 0.25 0.25 88 1016.2
20260903145003 17 189 4.8 11.3 0.13 0.25 0.25 87 1016.1
20260903144003 17 200 6.4 16.1 0.15 0.25 0.25 86 1016.2
20260903143006 17 202 3.2 16.1 0.15 0.23 0.23 84 1016.4
20260903142221 17 207 3.2 12.9 0.15 0.18 0.18 83 1016.3
20260903141006 18 140 1.6 9.7 0.18 0.18 0.18 82 1016.2
20260903140003 18 136 1.6 4.8 0.18 0.18 0.18 80 1016.0
20260903135003 18 201 1.6 6.4 0.15 0.15 0.15 78 1016.2
20260903134003 19 211 1.6 9.7 0.13 0.13 0.13 76 1016.1
20260903133003 20 209 6.4 14.5 0.05 0.05 0.05 72 1016.1
20260903132007 20 209 8.0 17.7 0.03 0.03 0.03 67 1016.1
20260903131003 21 217 4.8 20.9 0.00 0.00 0.00 62 1016.0
20260903130007 21 217 9.7 24.1 0.00 0.00 0.00 61 1015.7
20260903125218 21 216 9.7 25.7 0.00 0.00 0.00 61 1015.4
20260903124004 21 211 8.0 19.3 0.00 0.00 0.00 61 1015.2
20260903123220 21 202 8.0 19.3 0.00 0.00 0.00 62 1015.2
20260903122220 21 211 8.0 29.0 0.00 0.00 0.00 58 1015.3
20260903121008 22 211 8.0 14.5 0.00 0.00 0.00 60 1015.2
20260903120218 22 204 9.7 25.7 0.00 0.00 0.00 60 1015.2
20260903115218 22 219 11.3 25.7 0.00 0.00 0.00 57 1015.3
20260903114220 22 222 16.1 37.0 0.00 0.00 0.00 58 1015.2
20260903113220 22 211 14.5 38.6 0.00 0.00 0.00 57 1015.3
20260903112006 22 220 14.5 41.8 0.00 0.00 0.00 55 1015.5
20260903111007 23 212 12.9 25.7 0.00 0.00 0.00 56 1015.5
20260903110003 23 220 12.9 29.0 0.00 0.00 0.00 56 1015.4
20260903105003 22 203 11.3 29.0 0.00 0.00 0.00 58 1015.6
20260903104003 22 188 8.0 27.4 0.00 0.00 0.00 62 1015.7
20260903103007 21 214 8.0 19.3 0.00 0.00 0.00 62 1015.9
20260903102003 21 204 8.0 19.3 0.00 0.00 0.00 61 1016.1
20260903101006 20 199 11.3 25.7 0.00 0.00 0.00 61 1016.3
20260903100217 20 197 8.0 25.7 0.00 0.00 0.00 61 1016.3
20260903095003 20 211 8.0 20.9 0.00 0.00 0.00 62 1016.4
20260903094221 20 213 8.0 20.9 0.00 0.00 0.00 62 1016.6
20260903093003 20 204 8.0 20.9 0.00 0.00 0.00 62 1016.7
20260903092006 19 208 8.0 16.1 0.00 0.00 0.00 63 1016.9
20260903091003 19 210 8.0 20.9 0.00 0.00 0.00 62 1017.1
20260903090006 19 200 8.0 20.9 0.00 0.00 0.00 64 1017.1
20260903085003 19 198 8.0 24.1 0.00 0.00 0.00 65 1017.1
20260903084004 18 201 8.0 12.9 0.00 0.00 0.00 65 1017.4
20260903083007 18 198 8.0 20.9 0.00 0.00 0.00 66 1017.3
20260903082003 18 210 6.4 20.9 0.00 0.00 0.00 69 1017.5
20260903081003 17 175 1.6 9.7 0.00 0.00 0.00 75 1017.4
20260903080003 17 149 3.2 9.7 0.00 0.00 0.00 77 1017.4
20260903075216 16 149 4.8 11.3 0.00 0.00 0.00 78 1017.3
20260903074003 16 169 3.2 16.1 0.00 0.00 0.00 81 1017.2
20260903073221 15 168 4.8 9.7 0.00 0.00 0.00 82 1017.3
20260903072003 15 160 4.8 12.9 0.00 0.00 0.00 84 1017.2
20260903071003 14 151 3.2 11.3 0.00 0.00 0.00 87 1017.2
20260903070004 13 181 3.2 12.9 0.00 0.00 0.00 87 1017.7
20260903065006 13 184 3.2 12.9 0.00 0.00 0.00 87 1017.6
20260903064007 13 156 3.2 11.3 0.00 0.00 0.00 87 1017.5
20260903063003 13 137 3.2 11.3 0.00 0.00 0.00 89 1017.9
20260903062003 12 157 4.8 12.9 0.00 0.00 0.00 90 1018.1
20260903061006 12 157 3.2 12.9 0.00 0.00 0.00 90 1018.2
20260903060006 12 169 3.2 9.7 0.00 0.00 0.00 91 1018.2
20260903055006 12 163 1.6 6.4 0.00 0.00 0.00 91 1018.2
20260903054220 12 162 3.2 9.7 0.00 0.00 0.00 91 1018.3
20260903053003 11 193 3.2 11.3 0.00 0.00 0.00 92 1018.2
20260903052003 11 203 1.6 9.7 0.00 0.00 0.00 91 1018.0
20260903051003 11 212 3.2 6.4 0.00 0.00 0.00 91 1017.9
20260903050222 11 212 1.6 6.4 0.00 0.00 0.00 91 1017.9
20260903045003 11 233 0.0 4.8 0.00 0.00 0.00 90 1017.8
20260903044003 11 186 0.0 3.2 0.00 0.00 0.00 91 1017.9
20260903043003 11 177 1.6 6.4 0.00 0.00 0.00 91 1017.9
20260903042221 11 189 3.2 9.7 0.00 0.00 0.00 90 1017.9
20260903041006 11 198 1.6 8.0 0.00 0.00 0.00 90 1017.9
20260903040008 11 215 3.2 4.8 0.00 0.00 0.00 90 1017.8
20260903035008 11 229 1.6 4.8 0.00 0.00 0.00 89 1017.9
20260903034006 11 203 1.6 4.8 0.00 0.00 0.00 89 1017.8
20260903033006 11 212 3.2 8.0 0.00 0.00 0.00 89 1018.1
20260903032006 12 226 3.2 6.4 0.00 0.00 0.00 89 1018.0
20260903031003 12 215 1.6 6.4 0.00 0.00 0.00 89 1018.1
20260903030221 12 206 3.2 6.4 0.00 0.00 0.00 89 1018.2
20260903025006 12 192 3.2 8.0 0.00 0.00 0.00 89 1018.1
20260903024006 12 194 4.8 9.7 0.00 0.00 0.00 89 1018.1
20260903023006 12 194 1.6 8.0 0.00 0.00 0.00 90 1018.1